FW4191 Weather Reports


Display with metric or nautical units.
time (UTC)temp
F
wind
direction
speed
MPH
gust
MPH
rain 1hr
in
rain 24hr
in
rain mn
in
humidity
%
barometer
mb
20260509151136 64 180 0.0 2.0 0.00 0.25 0.25 78 1072.8
20260509150139 64 241 2.0 4.0 0.00 0.25 0.25 82 1072.6
20260509145238 63 244 0.0 2.0 0.00 0.25 0.25 82 1072.5
20260509145138 63 358 0.0 0.0 0.00 0.25 0.25 82 1072.5
20260509144136 62 232 1.0 4.0 0.00 0.25 0.25 82 1072.6
20260509143139 62 209 3.0 5.0 0.00 0.25 0.25 86 1072.5
20260509142137 61 261 1.0 2.0 0.00 0.25 0.25 90 1072.5
20260509141036 60 205 2.0 4.0 0.00 0.25 0.25 92 1072.6
20260509140039 59 219 0.0 1.0 0.00 0.25 0.25 93 1072.6
20260509135939 59 223 0.0 1.0 0.00 0.25 0.25 92 1072.6
20260509135856 59 227 1.0 3.0 0.00 0.25 0.25 93 1072.6
20260509134853 58 221 3.0 5.0 0.00 0.25 0.25 93 1072.9
20260509132955 56 176 0.0 1.0 0.00 0.25 0.25 93 1072.7
20260509131937 56 202 0.0 0.0 0.00 0.25 0.25 94 1072.6
20260509130937 55 237 3.0 4.0 0.01 0.25 0.25 93 1072.5
20260509130840 55 253 1.0 2.0 0.01 0.25 0.25 93 1072.7
20260509125754 55 207 1.0 4.0 0.01 0.25 0.25 93 1072.5
20260509124739 55 291 0.0 0.0 0.01 0.25 0.25 94 1072.3
20260509124638 55 344 0.0 0.0 0.01 0.25 0.25 93 1072.3
20260509123737 54 67 0.0 0.0 0.01 0.25 0.25 94 1072.2
20260509122736 54 67 0.0 0.0 0.01 0.25 0.25 94 1072.2
20260509122638 54 67 0.0 0.0 0.01 0.25 0.25 93 1072.2
20260509121654 54 202 0.0 0.0 0.00 0.24 0.24 93 1072.3
20260509115753 53 209 1.0 4.0 0.01 0.24 0.24 94 1072.3
20260509113837 53 180 0.0 0.0 0.02 0.24 0.24 93 1071.9
20260509112838 54 180 0.0 0.0 0.03 0.24 0.24 93 1072.0
20260509111838 53 180 0.0 0.0 0.04 0.24 0.24 94 1072.1
20260509110837 53 180 0.0 0.0 0.04 0.23 0.23 93 1072.2
20260509105840 54 180 0.0 0.0 0.05 0.23 0.23 93 1072.3
20260509103838 53 192 1.0 3.0 0.06 0.22 0.22 93 1072.5
20260509103753 53 209 0.0 2.0 0.06 0.22 0.22 93 1072.4
20260509101738 53 157 0.0 0.0 0.05 0.20 0.20 93 1072.3
20260509100737 53 157 0.0 0.0 0.05 0.19 0.19 92 1072.6
20260509095737 53 157 0.0 0.0 0.04 0.18 0.18 93 1072.7
20260509094737 53 157 0.0 0.0 0.04 0.17 0.17 93 1072.7
20260509093753 53 157 0.0 0.0 0.04 0.16 0.16 92 1072.7
20260509092837 53 157 0.0 0.0 0.04 0.16 0.16 92 1072.7
20260509091852 54 157 0.0 0.0 0.04 0.15 0.15 92 1073.0
20260509090938 54 180 0.0 0.0 0.04 0.14 0.14 93 1073.1
20260509085938 54 166 0.0 0.0 0.04 0.14 0.14 93 1073.3
20260509084938 54 202 0.0 0.0 0.04 0.13 0.13 93 1073.3
20260509082040 53 180 0.0 0.0 0.03 0.11 0.11 93 1073.4
20260509081040 53 180 0.0 0.0 0.02 0.10 0.10 92 1073.4
20260509080138 53 180 0.0 0.0 0.03 0.10 0.10 92 1073.3
20260509075236 53 180 0.0 0.0 0.02 0.09 0.09 93 1073.1
20260509074236 53 180 0.0 0.0 0.03 0.09 0.09 93 1073.3
20260509073254 53 180 0.0 0.0 0.03 0.09 0.09 92 1073.4
20260509071236 53 202 0.0 0.0 0.03 0.08 0.08 92 1073.8
20260509070238 53 202 0.0 2.0 0.03 0.07 0.07 92 1073.8
20260509070139 53 202 0.0 0.0 0.03 0.07 0.07 91 1073.9
20260509065136 53 225 0.0 1.0 0.03 0.07 0.06 91 1073.9
20260509065038 53 225 1.0 2.0 0.02 0.06 0.06 91 1074.0
20260509063153 53 157 0.0 0.0 0.03 0.06 0.06 92 1074.1
20260509062155 53 157 0.0 0.0 0.03 0.05 0.05 91 1073.9
20260509060336 53 157 0.0 0.0 0.02 0.04 0.04 91 1073.8
20260509055336 53 157 0.0 0.0 0.02 0.04 0.04 91 1073.9
20260509054337 53 157 0.0 0.0 0.02 0.04 0.04 91 1074.0
20260509053437 53 157 0.0 0.0 0.02 0.03 0.03 90 1074.2
20260509052339 53 157 0.0 0.0 0.01 0.02 0.02 89 1074.2
20260509052239 53 157 0.0 0.0 0.01 0.02 0.02 90 1074.2
20260509045335 53 157 0.0 0.0 0.02 0.02 0.02 89 1074.4
20260509044339 53 157 0.0 0.0 0.02 0.02 0.02 88 1074.4
20260509044239 53 157 0.0 0.0 0.02 0.02 0.02 89 1074.3
20260509043238 53 157 0.0 0.0 0.01 0.01 0.01 89 1074.5
20260509043136 53 157 0.0 0.0 0.01 0.01 0.01 89 1074.5
20260509042236 53 157 0.0 0.0 0.01 0.01 0.01 88 1074.5
20260509041335 53 157 0.0 0.0 0.01 0.01 0.01 87 1074.6
20260509040337 53 157 0.0 0.0 0.00 0.00 0.00 88 1074.6
20260509035416 54 157 0.0 0.0 0.00 0.00 0.00 86 1074.7
20260509034416 54 157 0.0 0.0 0.00 0.00 0.00 87 1074.6
20260509033515 54 157 0.0 0.0 0.00 0.00 0.00 87 1074.6
20260509032532 54 157 0.0 0.0 0.00 0.00 0.00 87 1074.7
20260509031536 54 157 0.0 0.0 0.00 0.00 0.00 86 1074.8
20260509030518 54 157 0.0 0.0 0.00 0.00 0.00 86 1074.8
20260509030417 54 157 0.0 0.0 0.00 0.00 0.00 86 1074.7
20260509024516 54 292 0.0 0.0 0.00 0.00 0.00 86 1075.0
20260509023516 54 67 0.0 0.0 0.00 0.00 0.00 84 1074.6
20260509022517 54 67 0.0 0.0 0.00 0.00 0.00 84 1074.7
20260509022417 54 67 0.0 0.0 0.00 0.00 0.00 84 1074.7
20260509021418 54 67 0.0 0.0 0.00 0.00 0.00 83 1074.7
20260509020416 55 67 0.0 0.0 0.00 0.00 0.00 84 1074.7
20260509014416 55 202 0.0 1.0 0.00 0.00 0.00 83 1074.8
20260509014317 55 202 1.0 2.0 0.00 0.00 0.00 84 1074.7
20260509011417 56 202 0.0 0.0 0.00 0.00 0.00 83 1074.5
20260509010417 55 202 0.0 0.0 0.00 0.00 0.00 78 1074.2
20260509005415 56 202 0.0 0.0 0.00 0.00 0.00 77 1073.9
20260509004316 56 202 0.0 0.0 0.00 0.00 0.00 76 1073.8
20260509002317 57 202 0.0 1.0 0.00 0.00 0.00 74 1073.8
20260509001332 56 202 0.0 0.0 0.00 0.00 0.00 72 1073.9
20260509000318 57 202 0.0 0.0 0.00 0.00 0.00 71 1073.9
20260508235316 57 202 0.0 0.0 0.00 0.00 0.00 72 1073.9
20260508235231 57 202 0.0 0.0 0.00 0.00 0.00 71 1073.9
20260508234217 58 202 0.0 0.0 0.00 0.00 0.00 68 1074.0
20260508233316 59 202 0.0 0.0 0.00 0.00 0.00 66 1074.1
20260508232318 61 202 0.0 0.0 0.00 0.00 0.00 61 1073.9
20260508232215 61 202 0.0 0.0 0.00 0.00 0.00 60 1074.0
20260508231217 62 202 0.0 0.0 0.00 0.00 0.00 56 1073.8
20260508230316 62 202 0.0 2.0 0.00 0.00 0.00 54 1073.8
20260508225415 63 202 0.0 0.0 0.00 0.00 0.00 54 1073.5
20260508224416 63 202 0.0 1.0 0.00 0.00 0.00 52 1073.6
20260508222517 64 202 0.0 0.0 0.00 0.00 0.00 50 1073.7
20260508221533 64 225 0.0 0.0 0.00 0.00 0.00 50 1073.5
20260508221416 64 225 0.0 0.0 0.00 0.00 0.00 49 1073.5
20260508220418 65 225 0.0 0.0 0.00 0.00 0.00 48 1073.5
20260508215516 65 236 1.0 3.0 0.00 0.00 0.00 49 1073.5
20260508214516 65 225 0.0 1.0 0.00 0.00 0.00 49 1073.5
20260508213515 65 225 0.0 0.0 0.00 0.00 0.00 47 1073.5
20260508212516 66 225 0.0 0.0 0.00 0.00 0.00 45 1073.8
20260508210617 65 189 2.0 3.0 0.00 0.00 0.00 45 1073.9
20260508205618 65 210 2.0 5.0 0.00 0.00 0.00 45 1074.1
20260508205516 65 247 0.0 0.0 0.00 0.00 0.00 46 1074.2
20260508203515 66 225 0.0 1.0 0.00 0.00 0.00 47 1074.6
20260508202516 66 197 1.0 2.0 0.00 0.00 0.00 47 1074.4
20260508201518 66 195 0.0 0.0 0.00 0.00 0.00 47 1074.6
20260508201416 66 211 0.0 1.0 0.00 0.00 0.00 47 1074.6
20260508195418 67 225 0.0 0.0 0.00 0.00 0.00 39 1074.8
20260508193418 70 204 1.0 3.0 0.00 0.00 0.00 39 1074.8
20260508192516 72 214 2.0 4.0 0.00 0.00 0.00 40 1074.9
20260508191516 71 314 1.0 2.0 0.00 0.00 0.00 43 1074.9
20260508191417 71 336 1.0 2.0 0.00 0.00 0.00 42 1074.9
20260508190515 70 210 3.0 8.0 0.00 0.00 0.00 40 1075.1
20260508185517 71 257 1.0 4.0 0.00 0.00 0.00 40 1075.5
20260508184416 71 241 4.0 8.0 0.00 0.00 0.00 40 1075.8
20260508183418 71 22 1.0 4.0 0.00 0.00 0.00 43 1075.7
20260508182515 70 331 0.0 4.0 0.00 0.00 0.00 44 1075.8
20260508174534 66 266 1.0 3.0 0.00 0.02 0.00 44 1076.6
20260508173631 67 283 0.0 1.0 0.00 0.02 0.00 45 1076.8
20260508171733 68 84 0.0 3.0 0.00 0.02 0.00 44 1077.0
20260508171615 68 129 0.0 1.0 0.00 0.02 0.00 44 1077.0
20260508170617 68 194 2.0 6.0 0.00 0.02 0.00 44 1077.2
20260508165716 68 286 0.0 4.0 0.00 0.02 0.00 44 1077.5
20260508164815 68 253 1.0 6.0 0.00 0.02 0.00 45 1077.6
20260508164719 68 314 0.0 2.0 0.00 0.02 0.00 45 1077.7
20260508163817 67 222 0.0 2.0 0.00 0.02 0.00 44 1077.7
20260508163716 67 252 1.0 4.0 0.00 0.02 0.00 45 1077.6
20260508162733 68 231 3.0 8.0 0.00 0.02 0.00 46 1077.8
20260508161815 67 231 1.0 3.0 0.00 0.02 0.00 45 1077.9
20260508160830 67 191 1.0 2.0 0.00 0.02 0.00 45 1078.0
20260508155818 67 277 2.0 4.0 0.00 0.02 0.00 47 1078.3
20260508154816 67 229 1.0 4.0 0.00 0.02 0.00 47 1078.3
20260508152918 66 309 0.0 4.0 0.00 0.02 0.00 49 1078.5
20260508151917 66 266 2.0 4.0 0.00 0.02 0.00 50 1078.5